TimeCST,TemperatureF,Dew PointF,Humidity,Sea Level PressureIn,VisibilityMPH,Wind Direction,Wind SpeedMPH,Gust SpeedMPH,PrecipitationIn,Events,Conditions,WindDirDegrees,DateUTC
12:53 AM,59.0,55.9,90,30.07,10.0,Calm,Calm,-,N/A,,Clear,0,2012-11-05 06:53:00
1:53 AM,57.0,55.0,93,30.06,10.0,North,3.5,-,0.01,,Clear,10,2012-11-05 07:53:00
2:53 AM,55.9,54.0,93,30.06,8.0,North,3.5,-,N/A,,Clear,10,2012-11-05 08:53:00
3:53 AM,55.0,53.1,93,30.06,10.0,Calm,Calm,-,N/A,,Clear,0,2012-11-05 09:53:00
4:53 AM,54.0,52.0,93,30.06,10.0,NE,3.5,-,N/A,,Clear,40,2012-11-05 10:53:00
5:53 AM,53.1,51.1,93,30.07,10.0,NNE,3.5,-,N/A,,Mostly Cloudy,20,2012-11-05 11:53:00
6:53 AM,54.0,50.0,86,30.07,10.0,NE,4.6,-,N/A,,Scattered Clouds,50,2012-11-05 12:53:00
7:53 AM,55.9,48.9,77,30.08,10.0,East,6.9,-,N/A,,Scattered Clouds,80,2012-11-05 13:53:00
8:53 AM,59.0,48.0,67,30.08,10.0,ENE,9.2,-,N/A,,Scattered Clouds,70,2012-11-05 14:53:00
9:53 AM,63.0,46.0,54,30.07,10.0,East,5.8,-,N/A,,Partly Cloudy,100,2012-11-05 15:53:00
10:53 AM,64.9,46.9,52,30.06,10.0,ESE,5.8,-,N/A,,Clear,120,2012-11-05 16:53:00
11:53 AM,64.9,48.9,56,30.03,10.0,SSE,8.1,-,N/A,,Mostly Cloudy,150,2012-11-05 17:53:00
12:53 PM,66.9,52.0,59,29.99,10.0,SSE,9.2,-,N/A,,Mostly Cloudy,160,2012-11-05 18:53:00
1:53 PM,66.0,53.1,63,29.97,10.0,Calm,Calm,-,N/A,,Overcast,0,2012-11-05 19:53:00
2:53 PM,66.9,54.0,63,29.96,10.0,East,4.6,-,N/A,,Overcast,100,2012-11-05 20:53:00
3:28 PM,66.2,55.4,68,29.95,10.0,ESE,10.4,-,N/A,,Overcast,120,2012-11-05 21:28:00
3:37 PM,66.2,53.6,64,29.97,10.0,ENE,5.8,-,N/A,,Mostly Cloudy,70,2012-11-05 21:37:00
3:53 PM,66.0,55.0,68,29.96,10.0,ESE,4.6,-,0.00,Rain,Light Rain,110,2012-11-05 21:53:00
4:01 PM,64.4,57.2,77,29.96,2.0,SE,6.9,-,0.06,Rain,Heavy Rain,140,2012-11-05 22:01:00
4:15 PM,62.6,57.2,82,29.96,8.0,Calm,Calm,-,0.07,Rain,Light Rain,0,2012-11-05 22:15:00
4:38 PM,62.6,57.2,82,29.95,2.0,ESE,5.8,-,0.11,Rain,Light Rain,110,2012-11-05 22:38:00
4:53 PM,62.1,57.9,86,29.95,2.0,NE,3.5,-,0.11,,Overcast,40,2012-11-05 22:53:00
5:00 PM,60.8,59.0,94,29.95,9.0,East,3.5,-,N/A,,Overcast,80,2012-11-05 23:00:00
5:53 PM,60.1,57.0,90,29.94,10.0,East,3.5,-,N/A,,Mostly Cloudy,100,2012-11-05 23:53:00
6:53 PM,60.1,57.0,90,29.95,10.0,Calm,Calm,-,N/A,,Scattered Clouds,0,2012-11-06 00:53:00
7:53 PM,62.1,59.0,90,29.94,9.0,Calm,Calm,-,N/A,,Partly Cloudy,0,2012-11-06 01:53:00
8:53 PM,61.0,60.1,97,29.93,8.0,ESE,3.5,-,N/A,,Partly Cloudy,120,2012-11-06 02:53:00
9:53 PM,57.9,57.0,97,29.91,4.0,NW,3.5,-,N/A,,Clear,320,2012-11-06 03:53:00
10:53 PM,57.9,57.0,97,29.93,10.0,NNW,5.8,-,N/A,,Mostly Cloudy,330,2012-11-06 04:53:00
11:02 PM,57.2,55.4,94,29.93,8.0,NNW,6.9,-,N/A,,Scattered Clouds,340,2012-11-06 05:02:00
11:53 PM,57.0,55.0,93,29.93,9.0,NNW,12.7,-,N/A,,Partly Cloudy,340,2012-11-06 05:53:00